{"data":{"norad_id":58909,"epoch":"2026-09-22T16:52:28.596000Z","epoch_age_seconds":61967,"freshness":"FRESH","line1":"1 58909U 24023E   26265.70310875  .00000963  00000+0  14326-3 0  9990","line2":"2 58909  50.0044 262.6943 0010678  75.7717 284.4407 14.83476591143391","mean_motion":14.83476591,"eccentricity":0.0010678,"inclination_deg":50.0044,"raan_deg":262.6943,"arg_perigee_deg":75.7717,"mean_anomaly_deg":284.4407,"bstar":0.00014326,"rev_number":14339,"period_min":97.069276909136,"perigee_km":610.90079166155,"apogee_km":625.84253556356,"semimajor_km":6996.5086636126,"source":"CELESTRAK","updated_at":"2026-09-23T09:00:19.070577Z"}}